Terminal Aerodrome Forecast
Issued by NWS Cleveland, OH

Home | Current Version | Previous Version | Graphics & Text | Print | Product List | Glossary On
Versions: 1 2 3 4 5 6 7 8 9 10 11 12 13 14 15 16 17 18 19 20 21 22 23 24 25 26 27 28 29 30
000
FTUS41 KCLE 190900 AAA
TAFCLE
TAF AMD
KCLE 190900Z 1909/2012 13008KT P6SM -RA OVC050
     FM191000 16005KT 3SM SHRA BR OVC025
      TEMPO 1910/1913 2SM -RA BR OVC012
     FM191800 23007KT 6SM -SHRA BR VCTS OVC025CB
     FM192000 36007KT P6SM VCTS BKN035CB OVC050
     FM200000 VRB03KT P6SM BKN050=

USA.gov is the U.S. government's official web portal to all federal, state and local government web resources and services.